OneWeb SL0124

operational
NORAD ID: 47276 Int'l Des: 2020-100 Owner: ONEWEB Country: UK Constellation: oneweb
LEOCIRCULARPOLARONEWEB_TYPE

About OneWeb SL0124

Description loading...

Live Position

Loading 3D Globe...

Upcoming Passes

Altitude History

Altitude vs Time

uPlot chart will show altitude changes over time

Two-Line Element Set

1 47276U 20100U 26035.84214634 .00000280 00000-0 74276-3 0 9996
2 47276 87.8952 16.9180 0001772 88.4815 271.6516 13.12443408247284
Epoch: Feb 4, 2026 • Age: 10 hours

Current Status

Altitude 1218.7 km
Velocity 7.25 km/s
Sub-Earth Point 40.44°N, 31.39°W
Launch Date Dec 18, 2020
Age 5.1 years
Type internet

Technical Details

Classification Payload
Mass 148.00 kg
Dry Mass 140.00 kg
Total Mass 148.00 kg
Length 1.30 m
Diameter 1.00 m
Span 5.00 m
Shape Trapezoid+2 pan
Manufacturer ONEWUS
Bus Type ARROW
Phase Status In Orbit
Owner/State ONEWEB/UK

Large Constellations

Loading constellations...